F5LKO-13 Weather Reports


time (UTC)temp
F
wind
direction
speed
knots
gust
knots
rain 1hr
in
rain 24hr
in
rain mn
in
humidity
%
barometer
mb
20260506115139 62 0.9 1.7 0.00 0.00 0.91 99 1014.9
20260506114634 61 1.7 4.3 0.00 0.00 0.91 99 1014.9
20260506114136 62 1.7 6.1 0.00 0.00 0.91 99 1014.9
20260506113621 63 0.9 2.6 0.00 0.00 0.91 99 1015.0
20260506113115 63 1.7 4.3 0.00 0.00 0.91 99 1015.0
20260506112609 65 0.9 3.5 0.00 0.00 0.91 99 1015.0
20260506112104 68 1.7 4.3 0.00 0.00 0.91 99 1014.9
20260506111558 71 0.9 3.5 0.00 0.00 0.91 99 1014.9
20260506111100 72 1.7 6.1 0.00 0.00 0.91 99 1014.9
20260506110545 71 1.7 4.3 0.00 0.00 0.91 99 1014.9
20260506110040 69 0.9 2.6 0.00 0.00 0.91 99 1014.8
20260506105533 67 0.9 2.6 0.02 0.00 0.91 99 1014.8
20260506105027 66 0.9 1.7 0.02 0.00 0.91 99 1014.8
20260506104521 65 0.9 3.5 0.02 0.00 0.91 99 1014.8
20260506104023 61 0.9 1.7 0.02 0.00 0.91 99 1014.8
20260506103509 59 0.0 0.9 0.02 0.00 0.91 99 1014.8
20260506103003 59 0.9 1.7 0.02 0.00 0.91 99 1014.8
20260506102457 59 0.9 3.5 0.02 0.00 0.91 99 1014.9
20260506101951 58 0.9 1.7 0.02 0.00 0.91 99 1014.9
20260506101445 56 0.0 0.9 0.02 0.00 0.91 99 1014.9
20260506100948 55 0.0 0.9 0.02 0.00 0.91 99 1014.9
20260506100433 56 1.7 4.3 0.02 0.00 0.91 99 1014.9
20260506095927 55 1.7 5.2 0.00 0.00 0.89 99 1014.9
20260506095420 55 1.7 5.2 0.18 0.00 0.87 99 1014.8
20260506094914 55 1.7 4.3 0.18 0.00 0.87 99 1014.8
20260506094409 55 0.9 3.5 0.18 0.00 0.87 99 1014.6
20260506093357 55 0.9 1.7 0.16 0.00 0.84 99 1014.5
20260506092851 55 0.9 3.5 0.13 0.00 0.82 99 1014.4
20260506092345 55 1.7 4.3 0.11 0.00 0.80 99 1014.5
20260506091839 55 0.9 3.5 0.06 0.00 0.75 99 1014.3
20260506091333 55 0.9 3.5 0.00 0.00 0.68 99 1014.3
20260506090835 55 0.9 3.5 0.00 0.00 0.68 99 1014.3
20260506090320 55 0.9 3.5 0.00 0.00 0.68 99 1014.3
20260506085813 54 0.9 3.5 0.13 0.00 0.68 99 1014.2
20260506085307 54 0.9 2.6 0.11 0.00 0.66 99 1014.2
20260506084802 55 0.9 2.6 0.11 0.00 0.66 99 1014.2
20260506084256 55 0.9 2.6 0.11 0.00 0.66 99 1014.2
20260506083758 55 0.9 3.5 0.09 0.00 0.64 99 1014.1
20260506083243 56 1.7 6.1 0.06 0.00 0.61 99 1014.0
20260506082737 57 0.9 1.7 0.02 0.00 0.57 99 1014.0
20260506082232 57 0.9 2.6 0.00 0.00 0.54 99 1014.0
20260506081726 56 0.9 2.6 0.00 0.00 0.54 99 1014.1
20260506081220 56 0.9 1.7 0.00 0.00 0.54 99 1014.1
20260506080723 55 0.9 1.7 0.00 0.00 0.54 99 1014.1
20260506080208 54 0.9 1.7 0.00 0.00 0.54 99 1014.1
20260506073130 62 0.0 0.9 0.00 0.00 0.43 99 1013.6
20260506072624 60 0.9 3.5 0.00 0.00 0.43 99 1013.7
20260506072118 60 0.9 1.7 0.00 0.00 0.43 99 1013.7
20260506071612 58 0.9 2.6 0.00 0.00 0.43 99 1013.7
20260506071106 58 0.0 0.9 0.00 0.00 0.43 99 1013.7
20260506070608 55 0.0 0.0 0.00 0.00 0.43 99 1013.7
20260506062511 55 0.0 0.0 0.00 0.00 0.43 99 1013.5
20260506062005 56 0.0 0.0 0.00 0.00 0.43 99 1013.4
20260506061459 54 0.0 0.9 0.00 0.00 0.43 99 1013.5
20260506060953 53 0.0 0.9 0.00 0.00 0.43 99 1013.4
20260506060455 53 0.0 0.0 0.00 0.00 0.43 99 1013.5
20260506051346 50 0.0 0.0 0.00 0.00 0.43 99 1013.2
20260506050840 50 0.0 0.0 0.00 0.00 0.43 99 1013.1
20260506050343 50 0.0 0.0 0.00 0.00 0.43 99 1013.1
20260506044815 50 0.0 0.0 0.02 0.00 0.43 99 1013.0
20260506044309 50 0.0 0.0 0.02 0.00 0.43 99 1013.1
20260506043803 50 0.0 0.0 0.00 0.00 0.41 99 1013.1
20260506043305 50 0.0 0.0 0.00 0.00 0.41 99 1013.2
20260506042750 50 0.0 0.0 0.00 0.00 0.41 99 1013.2
20260506042245 50 0.0 0.0 0.00 0.00 0.41 99 1013.3
20260506041739 50 0.0 0.0 0.00 0.00 0.41 99 1013.3
20260506041233 50 0.0 0.0 0.00 0.00 0.41 99 1013.3
20260506040727 50 0.0 0.0 0.00 0.00 0.41 99 1013.3
20260506040229 51 0.0 0.0 0.00 0.00 0.41 99 1013.3
20260506035713 51 0.0 0.0 0.00 0.00 0.41 99 1013.4
20260506035207 51 0.0 0.0 0.00 0.00 0.41 99 1013.5
20260506034701 51 0.0 0.0 0.00 0.00 0.41 99 1013.4
20260506034155 51 0.0 0.0 0.00 0.00 0.41 99 1013.4
20260506033649 51 0.0 0.0 0.00 0.00 0.41 99 1013.4
20260506033152 51 0.0 0.0 0.00 0.00 0.41 99 1013.5
20260506032636 51 0.0 0.0 0.00 0.00 0.41 99 1013.6
20260506032131 51 0.0 0.0 0.00 0.00 0.41 99 1013.5
20260506031625 51 0.0 0.0 0.00 0.00 0.41 99 1013.5
20260506031119 51 0.0 0.9 0.00 0.00 0.41 99 1013.6
20260506030613 51 0.0 0.0 0.00 0.00 0.41 99 1013.5
20260506030116 51 0.0 0.9 0.00 0.00 0.41 99 1013.6
20260506025601 51 0.9 1.7 0.11 0.00 0.41 99 1013.6
20260506025055 51 0.9 2.6 0.11 0.00 0.41 99 1013.7
20260506024549 51 0.0 0.0 0.11 0.00 0.41 99 1013.6
20260506024043 50 0.9 2.6 0.11 0.00 0.41 99 1013.7
20260506023537 50 0.0 0.9 0.11 0.00 0.41 99 1013.7
20260506023039 50 0.0 0.0 0.11 0.00 0.41 99 1013.8
20260506022524 50 0.0 0.0 0.09 0.00 0.38 99 1013.8
20260506022018 50 0.9 3.5 0.04 0.00 0.34 99 1013.7
20260506021514 50 0.9 1.7 0.04 0.00 0.34 99 1013.8
20260506021006 50 0.9 1.7 0.02 0.00 0.32 99 1013.9
20260506020500 50 0.9 1.7 0.00 0.00 0.29 99 1013.9
20260506020002 50 0.0 0.9 0.00 0.00 0.29 99 1013.9
20260506015447 50 0.9 2.6 0.29 0.00 0.29 99 1013.9
20260506014941 50 0.9 1.7 0.29 0.00 0.29 99 1013.8
20260506014435 50 0.9 2.6 0.25 0.00 0.25 99 1014.0
20260506013929 51 1.7 5.2 0.16 0.00 0.16 99 1013.8
20260506013423 51 0.9 2.6 0.00 0.00 0.00 99 1014.0
20260506012925 51 0.9 2.6 0.00 0.00 0.00 99 1013.9
20260506012410 50 0.0 0.0 0.00 0.00 0.00 99 1014.0
20260506011904 51 0.0 0.0 0.00 0.00 0.00 99 1013.9
20260506011358 51 0.0 0.9 0.00 0.00 0.00 99 1014.0
20260506010852 51 0.0 0.9 0.00 0.00 0.00 99 1014.1
20260506010347 51 0.0 0.9 0.00 0.00 0.00 99 1014.2
20260506005851 51 0.9 1.7 0.00 0.00 0.00 99 1014.2
20260506005336 51 0.9 1.7 0.00 0.00 0.00 99 1014.2
20260506004830 51 0.9 1.7 0.00 0.00 0.00 99 1014.4
20260506004324 51 0.9 2.6 0.00 0.00 0.00 99 1014.3
20260506003817 51 0.9 1.7 0.00 0.00 0.00 99 1014.5
20260506003311 51 0.0 0.9 0.00 0.00 0.00 99 1014.5
20260506002814 51 0.0 0.0 0.00 0.00 0.00 99 1014.4
20260506002259 51 0.0 0.0 0.00 0.00 0.00 99 1014.5
20260506001753 51 0.0 0.9 0.00 0.00 0.00 99 1014.5
20260506001247 51 0.9 1.7 0.00 0.00 0.00 99 1014.4
20260506000741 51 0.0 0.9 0.00 0.00 0.00 99 1014.5
20260506000235 51 0.0 0.9 0.00 0.00 0.00 99 1014.5
20260505235739 51 0.0 0.0 0.00 0.00 1.00 99 1014.5
20260505235224 51 0.0 0.0 0.00 0.00 1.00 99 1014.6
20260505234718 51 0.0 0.0 0.00 0.00 1.00 99 1014.7
20260505234212 51 0.0 0.0 0.00 0.00 1.00 99 1014.8
20260505233706 51 0.0 0.0 0.00 0.00 1.00 99 1014.9
20260505233200 51 0.0 0.0 0.00 0.00 1.00 99 1014.9
20260505232703 52 0.0 0.0 0.00 0.00 1.00 99 1014.8
20260505232148 52 0.0 0.9 0.00 0.00 1.00 99 1014.8
20260505231642 52 0.0 0.0 0.00 0.00 1.00 99 1014.9
20260505231136 52 0.0 0.0 0.00 0.00 1.00 99 1015.0
20260505230630 52 0.0 0.0 0.00 0.00 1.00 99 1014.9
20260505230124 52 0.0 0.9 0.00 0.00 1.00 99 1014.9
20260505225628 52 0.0 0.0 0.06 0.00 1.00 99 1014.9
20260505225113 52 0.0 0.0 0.06 0.00 1.00 99 1014.9
20260505224607 52 0.0 0.9 0.06 0.00 1.00 99 1014.9
20260505224101 52 0.0 0.9 0.06 0.00 1.00 99 1014.8
20260505223555 52 0.9 1.7 0.06 0.00 1.00 99 1014.8
20260505223049 52 0.0 0.9 0.06 0.00 1.00 99 1014.8
20260505222551 52 0.0 0.0 0.06 0.00 1.00 99 1014.8
20260505222036 52 0.0 0.0 0.06 0.00 1.00 99 1014.8
20260505221531 52 0.0 0.0 0.04 0.00 0.98 99 1014.9
20260505221025 52 0.0 0.0 0.04 0.00 0.98 99 1014.9
20260505220519 53 0.0 0.0 0.04 0.00 0.98 99 1014.9
20260505220013 53 0.0 0.0 0.00 0.00 0.93 99 1015.0
20260505215517 52 0.0 0.0 0.11 0.00 0.93 99 1015.0
20260505215002 53 0.0 0.0 0.11 0.00 0.93 99 1015.0
20260505214456 53 0.0 0.0 0.11 0.00 0.93 99 1015.1
20260505213950 53 0.0 0.0 0.11 0.00 0.93 99 1015.0
20260505213445 53 0.0 0.0 0.11 0.00 0.93 99 1015.1
20260505212939 53 0.0 0.0 0.11 0.00 0.93 99 1015.2
20260505212441 53 0.0 0.0 0.11 0.00 0.93 99 1015.2
20260505211926 53 0.0 0.0 0.11 0.00 0.93 99 1015.2
20260505211421 53 0.0 0.0 0.11 0.00 0.93 99 1015.1
20260505210915 53 0.0 0.9 0.06 0.00 0.89 99 1015.3
20260505210409 53 0.0 0.0 0.00 0.00 0.82 99 1015.2
20260505205904 53 0.0 0.0 0.00 0.00 0.82 99 1015.3
20260505205408 54 0.0 0.0 0.09 0.00 0.82 99 1015.2
20260505204853 54 0.0 0.0 0.09 0.00 0.82 99 1015.2
20260505204347 54 0.0 0.0 0.09 0.00 0.82 99 1015.3
20260505203841 54 0.0 0.0 0.09 0.00 0.82 99 1015.3
20260505203335 54 0.0 0.0 0.09 0.00 0.82 99 1015.2
20260505202829 54 0.0 0.0 0.09 0.00 0.82 99 1015.1
20260505202332 54 0.0 0.0 0.09 0.00 0.82 99 1015.1
20260505201817 55 0.0 0.9 0.09 0.00 0.82 99 1015.0
20260505201311 55 0.9 1.7 0.06 0.00 0.80 99 1015.0
20260505200805 55 0.0 0.9 0.00 0.00 0.73 99 1015.1
20260505200259 55 0.0 0.9 0.00 0.00 0.73 99 1015.0
20260505195752 55 0.0 0.9 0.00 0.00 0.73 99 1014.9
20260505195254 55 0.0 0.0 0.00 0.00 0.73 99 1014.9
20260505194739 55 0.0 0.0 0.00 0.00 0.73 99 1014.8
20260505194233 55 0.0 0.0 0.00 0.00 0.73 99 1014.7
20260505193728 55 0.0 0.0 0.00 0.00 0.73 99 1014.7
20260505193220 55 0.0 0.0 0.00 0.00 0.73 99 1014.6
20260505192714 55 0.0 0.0 0.00 0.00 0.73 99 1014.6
20260505192217 55 0.0 0.9 0.00 0.00 0.73 99 1014.6
20260505191702 55 0.0 0.9 0.00 0.00 0.73 99 1014.5
20260505191156 56 0.0 0.9 0.00 0.00 0.73 99 1014.4
20260505190650 56 0.9 2.6 0.00 0.00 0.73 99 1014.4
20260505190144 56 0.0 0.9 0.00 0.00 0.73 99 1014.4
20260505185638 57 1.7 4.3 0.00 0.00 0.73 99 1014.4
20260505185140 57 1.7 4.3 0.00 0.00 0.73 99 1014.4
20260505184625 58 0.0 0.9 0.00 0.00 0.73 99 1014.4
20260505184119 58 0.9 1.7 0.00 0.00 0.73 99 1014.4
20260505183613 58 0.9 2.6 0.00 0.00 0.73 99 1014.4
20260505183107 58 0.0 0.9 0.00 0.00 0.73 99 1014.4
20260505182103 58 0.9 1.7 0.00 0.00 0.73 99 1014.4
20260505181548 58 0.9 1.7 0.00 0.00 0.73 99 1014.3
20260505181042 57 0.9 1.7 0.00 0.00 0.73 99 1014.3
20260505180536 57 0.9 1.7 0.00 0.00 0.73 99 1014.3
20260505180030 57 0.0 0.9 0.00 0.00 0.73 99 1014.3
20260505175524 57 0.9 1.7 0.00 0.00 0.73 99 1014.3
20260505175026 57 0.9 2.6 0.00 0.00 0.73 99 1014.3
20260505174510 57 0.0 0.9 0.00 0.00 0.73 99 1014.4
20260505174006 58 0.0 0.9 0.00 0.00 0.73 99 1014.4
20260505173458 58 0.9 1.7 0.00 0.00 0.73 99 1014.3
20260505172952 58 0.0 0.9 0.00 0.00 0.73 99 1014.3
20260505172446 58 0.9 1.7 0.00 0.00 0.73 99 1014.4
20260505171948 58 0.9 2.6 0.00 0.00 0.73 99 1014.4
20260505171433 58 0.9 1.7 0.00 0.00 0.73 99 1014.4
20260505170928 58 0.9 1.7 0.00 0.00 0.73 99 1014.4
20260505170422 59 1.7 4.3 0.00 0.00 0.73 99 1014.3
20260505165916 59 0.9 1.7 0.00 0.00 0.73 99 1014.4
20260505165409 59 0.9 2.6 0.00 0.00 0.73 99 1014.4
20260505164911 59 0.9 3.5 0.00 0.00 0.73 99 1014.4
20260505164356 59 0.9 2.6 0.00 0.00 0.73 99 1014.5
20260505163850 60 0.9 3.5 0.00 0.00 0.73 99 1014.5
20260505163344 59 0.9 3.5 0.00 0.00 0.73 99 1014.5
20260505162838 59 0.9 3.5 0.00 0.00 0.73 99 1014.6
20260505162332 59 1.7 4.3 0.00 0.00 0.73 99 1014.7
20260505161835 60 0.9 2.6 0.00 0.00 0.73 99 1014.7
20260505161320 61 1.7 5.2 0.00 0.00 0.73 99 1014.7
20260505160814 61 0.9 3.5 0.00 0.00 0.73 99 1014.7
20260505160308 60 0.9 3.5 0.00 0.00 0.73 99 1014.7
20260505153230 64 0.9 3.5 0.00 0.00 0.73 99 1014.5
20260505152724 64 1.7 5.2 0.00 0.00 0.73 99 1014.6
20260505152218 64 1.7 4.3 0.00 0.00 0.73 99 1014.6
20260505151720 65 1.7 5.2 0.00 0.00 0.73 99 1014.6
20260505151205 66 1.7 4.3 0.00 0.00 0.73 99 1014.6
20260505150659 65 1.7 4.3 0.00 0.00 0.73 99 1014.7
20260505150153 65 1.7 4.3 0.00 0.00 0.73 99 1014.7
20260505140544 67 0.9 2.6 0.00 0.00 0.73 99 1014.6
20260505124912 64 0.9 2.6 0.00 0.00 0.73 99 1015.1
20260505124414 67 0.9 3.5 0.00 0.00 0.73 99 1015.1
20260505123859 65 0.9 2.6 0.00 0.00 0.73 99 1015.1
20260505123353 67 0.9 2.6 0.00 0.00 0.73 99 1015.1
20260505122847 67 0.9 3.5 0.00 0.00 0.73 99 1015.1
20260505122342 64 0.9 1.7 0.00 0.00 0.73 99 1015.1
20260505121836 63 0.9 2.6 0.00 0.00 0.73 99 1015.2
20260505121338 60 0.0 0.0 0.00 0.00 0.73 99 1015.2
20260505120824 59 0.0 0.0 0.00 0.00 0.73 99 1015.2
20260505120318 58 0.0 0.0 0.00 0.00 0.73 99 1015.2